Content
SEND FEEDBACK

Daily
Averages
Monthly
Summary
Canada

MONTREAL, QUEBEC


Home > North America > Canada > Quebec
Elevation: 118 feet     Latitude: 45 28N     Longitude: 073 45W

WEATHER
 
SELECT A DAY
Number of Records: 203,377;   Date Range: 1/1/95 - 12/18/14
 
SHARE

PRINT THIS DATA

[ ← Previous Day ]
WEATHER ALMANAC - FEBRUARY 20, 2013
[ Next Day → ]
[ °C ]   °F
Weather ElementAverageHighLow
Temperature24.4 °F30.2 °F (1:00 am)14 °F (11:00 pm)
Dewpoint20.5 °F26.6 °F (2:00 am)8.6 °F (10:16 pm)
Humidity84.3 %93 % (2:00 am)70 % (1:00 am)
Barometer29.63 in29.78 in (11:00 pm)29.58 in (5:00 am)
Wind Speed23 mph29.9 mph (9:43 pm)
Wind Gust39.1 mph (3:00 pm)
Weather ElementAverage
Visibility2.3 mi
Wind DirectionWSW (249.8 °)

Weather ElementTotal
Precipitation---
Heating Degree Days42.9 (Base 65)
Averaged from 46 records on February 20, 2013
WEATHER CONDITIONS BREAKOUT
WIND DIRECTION BREAKOUT
WEATHER BY HOUR - FEBRUARY 20, 2013
[ °C ]   °F
Local TimeTemperatureDewpointHumidityBarometerVisibilityWind DirectionWind SpeedGust SpeedPrecipitationEventsConditions
1:00 AM30.0 °F24.0 °F70 %29.60 in3.0 miSW (230°)19.6 mphSnowLight Snow
1:00 AM30.2 °F23.0 °F75 %29.60 in3.0 miSW (230°)18.4 mph26.5 mphSnowLight Snow
1:47 AM28.4 °F24.8 °F86 %29.60 in2.5 miSW (230°)17.3 mphSnowLight Snow
2:00 AM28.4 °F26.6 °F93 %29.60 in1.8 miSW (230°)17.3 mphSnowLight Snow
3:00 AM28.4 °F24.8 °F86 %29.59 in1.2 miWSW (240°)17.3 mph24.2 mphSnowLight Snow
3:51 AM28.4 °F24.8 °F86 %29.59 in2.0 miWSW (240°)19.6 mph26.5 mphSnowLight Snow
4:00 AM28.4 °F24.8 °F86 %29.59 in2.0 miWSW (240°)20.7 mph29.9 mphSnowLight Snow
5:00 AM26.6 °F23.0 °F86 %29.58 in2.5 miWSW (240°)21.9 mph27.6 mphSnowLight Snow
5:44 AM26.6 °F23.0 °F86 %29.58 in1.5 miWSW (240°)21.9 mph29.9 mphSnowLight Snow
6:00 AM26.6 °F23.0 °F86 %29.58 in1.5 miWSW (240°)21.9 mphSnowLight Snow
6:25 AM26.6 °F23.0 °F86 %29.58 in3.0 miWSW (240°)20.7 mph27.6 mphSnowLight Snow
7:00 AM26.6 °F21.2 °F80 %29.59 in4.0 miWSW (240°)23.0 mphSnowLight Snow
7:00 AM26.0 °F22.0 °F77 %29.59 in4.0 miWSW (240°)20.7 mphSnowLight Snow
8:00 AM24.8 °F21.2 °F86 %29.60 in4.0 miWSW (240°)24.2 mphSnowLight Snow
8:28 AM24.8 °F21.2 °F86 %29.59 in2.5 miWSW (250°)23.0 mphSnowLight Snow
9:00 AM24.8 °F21.2 °F86 %29.59 in1.5 miWSW (240°)23.0 mph34.5 mphSnowLight Snow
9:24 AM24.8 °F21.2 °F86 %29.59 in1.2 miWSW (240°)25.3 mph38.0 mphSnowLight Snow
9:38 AM24.8 °F21.2 °F86 %29.59 in1.0 miWSW (240°)27.6 mph33.4 mphSnowLight Snow
9:53 AM24.8 °F21.2 °F86 %29.58 in0.5 miWSW (240°)27.6 mphSnowLight Snow
10:00 AM24.8 °F21.2 °F86 %29.58 in0.4 miWSW (240°)23.0 mph32.2 mphSnowLight Snow
10:16 AM24.8 °F21.2 °F86 %29.58 in0.5 miWSW (240°)26.5 mph35.7 mphSnowLight Snow
11:00 AM24.8 °F21.2 °F86 %29.60 in0.6 miWSW (240°)27.6 mph35.7 mphSnowLight Snow
11:30 AM24.8 °F21.2 °F86 %29.60 in0.8 miWSW (240°)28.8 mph34.5 mphSnowLight Snow
12:00 PM24.8 °F21.2 °F86 %29.60 in0.8 miWSW (250°)24.2 mph34.5 mphSnowLight Snow
12:48 PM24.8 °F23.0 °F93 %29.60 in1.0 miWSW (240°)24.2 mph32.2 mphSnowLight Snow
1:00 PM25.0 °F21.0 °F79 %29.59 in2.0 miWSW (250°)26.5 mphSnowLight Snow
1:00 PM24.8 °F21.2 °F86 %29.59 in2.0 miWSW (250°)27.6 mph35.7 mphSnowLight Snow
2:00 PM24.8 °F21.2 °F86 %29.59 in1.8 miWSW (250°)28.8 mph38.0 mphSnowLight Snow
2:21 PM24.8 °F21.2 °F86 %29.59 in3.0 miWSW (240°)25.3 mph34.5 mphSnowLight Snow
3:00 PM24.8 °F21.2 °F86 %29.60 in5.0 miWSW (250°)23.0 mph39.1 mphSnowLight Snow
4:00 PM24.8 °F21.2 °F86 %29.62 in3.0 miWest (260°)26.5 mph38.0 mphSnowLight Snow
4:50 PM24.8 °F21.2 °F86 %29.64 in2.5 miWSW (240°)26.5 mph33.4 mphSnowLight Snow
5:00 PM24.8 °F21.2 °F86 %29.64 in2.0 miWSW (250°)26.5 mph35.7 mphSnowLight Snow
5:36 PM24.8 °F21.2 °F86 %29.65 in3.0 miWSW (240°)25.3 mph34.5 mphSnowLight Snow
6:00 PM24.8 °F21.2 °F86 %29.66 in4.0 miWSW (250°)25.3 mph32.2 mphSnowLight Snow
7:00 PM23.0 °F21.2 °F93 %29.69 in4.0 miWest (260°)19.6 mph28.8 mphSnowLight Snow
7:00 PM24.0 °F21.0 °F81 %29.69 in4.0 miWest (260°)21.9 mphSnowLight Snow
7:42 PM23.0 °F17.6 °F80 %29.70 in2.0 miWest (280°)16.1 mph26.5 mphSnowLight Snow
8:00 PM23.0 °F19.4 °F86 %29.70 in1.0 miWest (280°)17.3 mphSnowLight Snow
8:20 PM21.2 °F17.6 °F86 %29.70 in1.5 miWest (280°)23.0 mph29.9 mphSnowLight Snow
8:46 PM21.2 °F15.8 °F80 %29.72 in2.0 miWest (270°)18.4 mph29.9 mphSnowLight Snow
9:00 PM19.4 °F15.8 °F86 %29.72 in1.5 miWest (270°)17.3 mph25.3 mphSnowLight Snow
9:43 PM15.8 °F10.4 °F79 %29.74 in1.0 miWNW (290°)29.9 mph36.8 mphSnowLight Snow
10:00 PM15.8 °F10.4 °F79 %29.75 in1.5 miWest (280°)25.3 mph33.4 mphSnowLight Snow
10:16 PM15.8 °F8.6 °F73 %29.76 in3.0 miWNW (290°)21.9 mph32.2 mphSnowLight Snow
11:00 PM14.0 °F8.6 °F79 %29.78 in8.0 miWest (270°)19.6 mph27.6 mphSnowLight Snow
Hourly data recorded from CYUL, located miles away from Montreal, Quebec







STORIES FROM OUR PARTNERS